Time,TemperatureF,DewpointF,PressureIn,WindDirection,WindDirectionDegrees,WindSpeedMPH,WindSpeedGustMPH,Humidity,HourlyPrecipIn,Conditions,Clouds,dailyrainin,SoftwareType,DateUTC
2013-04-30 00:00:00,45.8,42.8,30.19,SE,145,6.0,11.0,89,0.00,,---,0.00,VWS V14.01,2013-04-30 04:00:00,
2013-04-30 00:02:00,45.7,42.7,30.19,SE,133,8.0,9.0,89,0.00,,---,0.00,VWS V14.01,2013-04-30 04:02:00,
2013-04-30 00:03:00,45.7,42.7,30.19,SE,144,5.0,9.0,89,0.00,,---,0.00,VWS V14.01,2013-04-30 04:03:00,
2013-04-30 00:04:00,45.7,42.7,30.19,SE,139,9.0,9.0,89,0.00,,---,0.00,VWS V14.01,2013-04-30 04:04:00,
2013-04-30 00:08:00,45.6,42.5,30.19,SE,126,5.0,11.0,89,0.00,,---,0.00,VWS V14.01,2013-04-30 04:08:00,
2013-04-30 00:11:00,45.6,42.8,30.19,ESE,107,7.0,11.0,90,0.00,,---,0.00,VWS V14.01,2013-04-30 04:11:00,
2013-04-30 00:16:00,45.5,42.7,30.19,SSE,149,4.0,12.0,90,0.00,,---,0.00,VWS V14.01,2013-04-30 04:16:00,
2013-04-30 00:21:00,45.4,42.6,30.19,ESE,121,8.0,11.0,90,0.00,,---,0.00,VWS V14.01,2013-04-30 04:21:00,
2013-04-30 00:27:00,45.3,42.5,30.19,SE,145,7.0,13.0,90,0.00,,---,0.00,VWS V14.01,2013-04-30 04:27:00,
2013-04-30 00:32:00,45.3,42.5,30.19,SE,135,13.0,13.0,90,0.00,,---,0.00,VWS V14.01,2013-04-30 04:32:00,
2013-04-30 00:37:00,45.2,42.5,30.19,SE,141,12.0,15.0,90,0.00,,---,0.00,VWS V14.01,2013-04-30 04:37:00,
2013-04-30 00:43:00,45.1,42.3,30.19,SSE,156,6.0,13.0,90,0.00,,---,0.00,VWS V14.01,2013-04-30 04:43:00,
2013-04-30 00:48:00,45.0,42.2,30.19,SSE,155,8.0,13.0,90,0.00,,---,0.00,VWS V14.01,2013-04-30 04:48:00,
2013-04-30 00:54:00,44.9,42.4,30.19,SSE,149,5.0,11.0,91,0.00,,---,0.00,VWS V14.01,2013-04-30 04:54:00,
2013-04-30 01:00:00,44.7,42.2,30.19,SE,133,8.0,12.0,91,0.00,,---,0.00,VWS V14.01,2013-04-30 05:00:00,
2013-04-30 01:05:00,44.7,42.5,30.19,SE,139,3.0,12.0,92,0.00,,---,0.00,VWS V14.01,2013-04-30 05:05:00,
2013-04-30 01:10:00,44.6,42.4,30.19,SE,144,5.0,11.0,92,0.00,,---,0.00,VWS V14.01,2013-04-30 05:10:00,
2013-04-30 01:16:00,44.5,42.6,30.19,SSE,153,6.0,9.0,93,0.00,,---,0.00,VWS V14.01,2013-04-30 05:16:00,
2013-04-30 01:21:00,44.5,42.6,30.19,SE,124,6.0,9.0,93,0.00,,---,0.00,VWS V14.01,2013-04-30 05:21:00,
2013-04-30 01:26:00,44.4,42.5,30.19,SE,128,4.0,8.0,93,0.00,,---,0.00,VWS V14.01,2013-04-30 05:26:00,
2013-04-30 01:32:00,44.3,42.4,30.19,SE,130,3.0,8.0,93,0.00,,---,0.00,VWS V14.01,2013-04-30 05:32:00,
2013-04-30 01:37:00,44.2,42.6,30.19,SSE,162,4.0,9.0,94,0.01,,---,0.01,VWS V14.01,2013-04-30 05:37:00,
2013-04-30 01:43:00,44.2,42.6,30.19,SSE,148,3.0,9.0,94,0.01,,---,0.01,VWS V14.01,2013-04-30 05:43:00,
2013-04-30 01:48:00,44.1,42.2,30.19,SE,145,8.0,11.0,93,0.01,,---,0.01,VWS V14.01,2013-04-30 05:48:00,
2013-04-30 01:54:00,44.1,42.2,30.19,ESE,121,9.0,11.0,93,0.01,,---,0.01,VWS V14.01,2013-04-30 05:54:00,
2013-04-30 01:59:00,44.0,42.1,30.19,SSE,153,5.0,12.0,93,0.01,,---,0.01,VWS V14.01,2013-04-30 05:59:00,
2013-04-30 02:05:00,43.9,42.0,30.19,SE,143,4.0,8.0,93,0.01,,---,0.01,VWS V14.01,2013-04-30 06:05:00,
2013-04-30 02:10:00,43.8,41.9,30.19,SE,135,9.0,9.0,93,0.02,,---,0.02,VWS V14.01,2013-04-30 06:10:00,
2013-04-30 02:15:00,43.7,41.8,30.19,SE,135,5.0,11.0,93,0.02,,---,0.02,VWS V14.01,2013-04-30 06:15:00,
2013-04-30 02:21:00,43.7,41.8,30.19,SE,126,7.0,10.0,93,0.02,,---,0.02,VWS V14.01,2013-04-30 06:21:00,
2013-04-30 02:26:00,43.6,41.7,30.19,SE,129,7.0,10.0,93,0.02,,---,0.02,VWS V14.01,2013-04-30 06:26:00,
2013-04-30 02:32:00,43.5,41.6,30.18,SE,139,5.0,9.0,93,0.02,,---,0.02,VWS V14.01,2013-04-30 06:32:00,
2013-04-30 02:38:00,43.5,41.6,30.18,SE,134,9.0,10.0,93,0.02,,---,0.03,VWS V14.01,2013-04-30 06:38:00,
2013-04-30 02:43:00,43.5,41.3,30.18,SSE,165,4.0,7.0,92,0.02,,---,0.03,VWS V14.01,2013-04-30 06:43:00,
2013-04-30 02:48:00,43.5,41.3,30.19,SE,129,7.0,11.0,92,0.02,,---,0.03,VWS V14.01,2013-04-30 06:48:00,
2013-04-30 02:54:00,43.6,41.4,30.19,SE,146,4.0,8.0,92,0.02,,---,0.03,VWS V14.01,2013-04-30 06:54:00,
2013-04-30 02:59:00,43.6,41.2,30.19,SSE,167,6.0,9.0,91,0.02,,---,0.03,VWS V14.01,2013-04-30 06:59:00,
2013-04-30 03:04:00,43.7,41.2,30.19,SSE,155,5.0,11.0,91,0.02,,---,0.03,VWS V14.01,2013-04-30 07:04:00,
2013-04-30 03:09:00,43.7,41.0,30.19,SE,139,4.0,10.0,90,0.01,,---,0.03,VWS V14.01,2013-04-30 07:09:00,
2013-04-30 03:14:00,43.7,41.0,30.19,SSE,160,5.0,10.0,90,0.01,,---,0.03,VWS V14.01,2013-04-30 07:14:00,
2013-04-30 03:20:00,43.7,41.0,30.19,SE,146,8.0,9.0,90,0.01,,---,0.03,VWS V14.01,2013-04-30 07:20:00,
2013-04-30 03:25:00,43.7,41.0,30.19,SE,145,4.0,10.0,90,0.01,,---,0.03,VWS V14.01,2013-04-30 07:25:00,
2013-04-30 03:30:00,43.8,40.8,30.20,SE,135,6.0,10.0,89,0.01,,---,0.03,VWS V14.01,2013-04-30 07:30:00,
2013-04-30 03:35:00,43.8,40.8,30.20,SSE,149,4.0,10.0,89,0.00,,---,0.03,VWS V14.01,2013-04-30 07:35:00,
2013-04-30 03:41:00,43.8,40.8,30.20,SSE,152,6.0,9.0,89,0.00,,---,0.03,VWS V14.01,2013-04-30 07:41:00,
2013-04-30 03:47:00,43.8,40.8,30.20,SE,124,5.0,9.0,89,0.00,,---,0.03,VWS V14.01,2013-04-30 07:47:00,
2013-04-30 03:52:00,43.7,40.7,30.20,South,184,5.0,8.0,89,0.00,,---,0.03,VWS V14.01,2013-04-30 07:52:00,
2013-04-30 03:58:00,43.7,40.7,30.20,SE,139,4.0,8.0,89,0.00,,---,0.03,VWS V14.01,2013-04-30 07:58:00,
2013-04-30 04:03:00,43.7,40.7,30.20,SE,139,6.0,7.0,89,0.00,,---,0.03,VWS V14.01,2013-04-30 08:03:00,
2013-04-30 04:08:00,43.7,40.7,30.20,SSE,156,6.0,8.0,89,0.00,,---,0.03,VWS V14.01,2013-04-30 08:08:00,
2013-04-30 04:13:00,43.6,40.6,30.20,SE,142,5.0,7.0,89,0.00,,---,0.03,VWS V14.01,2013-04-30 08:13:00,
2013-04-30 04:18:00,43.6,40.6,30.20,ESE,121,4.0,7.0,89,0.00,,---,0.03,VWS V14.01,2013-04-30 08:18:00,
2013-04-30 04:23:00,43.6,40.9,30.21,SE,142,3.0,5.0,90,0.00,,---,0.03,VWS V14.01,2013-04-30 08:23:00,
2013-04-30 04:29:00,43.5,40.8,30.21,ESE,118,5.0,6.0,90,0.00,,---,0.03,VWS V14.01,2013-04-30 08:29:00,
2013-04-30 04:34:00,43.5,40.8,30.21,SE,141,2.0,6.0,90,0.00,,---,0.03,VWS V14.01,2013-04-30 08:34:00,
2013-04-30 04:40:00,43.5,40.8,30.21,SSE,149,4.0,7.0,90,0.00,,---,0.03,VWS V14.01,2013-04-30 08:40:00,
2013-04-30 04:45:00,43.5,40.8,30.21,SE,143,4.0,7.0,90,0.00,,---,0.03,VWS V14.01,2013-04-30 08:45:00,
2013-04-30 04:50:00,43.5,40.8,30.21,SE,142,3.0,6.0,90,0.00,,---,0.03,VWS V14.01,2013-04-30 08:50:00,
2013-04-30 04:55:00,43.5,40.8,30.21,SE,132,3.0,6.0,90,0.00,,---,0.03,VWS V14.01,2013-04-30 08:55:00,
2013-04-30 05:00:00,43.5,40.8,30.21,SE,130,5.0,6.0,90,0.00,,---,0.03,VWS V14.01,2013-04-30 09:00:00,
2013-04-30 05:06:00,43.5,40.8,30.22,SE,126,6.0,6.0,90,0.00,,---,0.03,VWS V14.01,2013-04-30 09:06:00,
2013-04-30 05:11:00,43.5,40.8,30.22,SSE,155,4.0,5.0,90,0.00,,---,0.03,VWS V14.01,2013-04-30 09:11:00,
2013-04-30 05:17:00,43.5,40.5,30.22,SSE,153,3.0,7.0,89,0.00,,---,0.03,VWS V14.01,2013-04-30 09:17:00,
2013-04-30 05:22:00,43.5,40.5,30.22,SE,139,4.0,6.0,89,0.00,,---,0.03,VWS V14.01,2013-04-30 09:22:00,
2013-04-30 05:27:00,43.5,40.2,30.23,SE,141,4.0,5.0,88,0.00,,---,0.03,VWS V14.01,2013-04-30 09:27:00,
2013-04-30 05:32:00,43.5,40.2,30.23,SSE,147,2.0,6.0,88,0.00,,---,0.03,VWS V14.01,2013-04-30 09:32:00,
2013-04-30 05:37:00,43.5,39.9,30.23,SE,139,2.0,6.0,87,0.00,,---,0.03,VWS V14.01,2013-04-30 09:37:00,
2013-04-30 05:42:00,43.5,39.9,30.23,ESE,112,4.0,6.0,87,0.00,,---,0.03,VWS V14.01,2013-04-30 09:42:00,
2013-04-30 05:47:00,43.6,40.0,30.23,SE,135,3.0,6.0,87,0.00,,---,0.03,VWS V14.01,2013-04-30 09:47:00,
2013-04-30 05:52:00,43.5,39.9,30.24,South,181,5.0,6.0,87,0.00,,---,0.03,VWS V14.01,2013-04-30 09:52:00,
2013-04-30 05:57:00,43.5,39.9,30.24,SSE,156,6.0,6.0,87,0.00,,---,0.03,VWS V14.01,2013-04-30 09:57:00,
2013-04-30 06:02:00,43.5,39.9,30.24,ESE,121,4.0,5.0,87,0.00,,---,0.03,VWS V14.01,2013-04-30 10:02:00,
2013-04-30 06:08:00,43.4,40.1,30.24,SE,139,5.0,5.0,88,0.00,,---,0.03,VWS V14.01,2013-04-30 10:08:00,
2013-04-30 06:13:00,43.5,40.2,30.24,SE,130,4.0,6.0,88,0.00,,---,0.03,VWS V14.01,2013-04-30 10:13:00,
2013-04-30 06:18:00,43.5,40.2,30.24,SE,135,4.0,5.0,88,0.00,,---,0.03,VWS V14.01,2013-04-30 10:18:00,
2013-04-30 06:23:00,43.5,40.2,30.25,SE,139,3.0,5.0,88,0.00,,---,0.03,VWS V14.01,2013-04-30 10:23:00,
2013-04-30 06:28:00,43.6,40.3,30.25,ESE,107,2.0,5.0,88,0.00,,---,0.03,VWS V14.01,2013-04-30 10:28:00,
2013-04-30 06:33:00,43.6,40.3,30.25,SSE,148,3.0,4.0,88,0.00,,---,0.03,VWS V14.01,2013-04-30 10:33:00,
2013-04-30 06:38:00,43.7,40.1,30.25,SE,143,6.0,7.0,87,0.00,,---,0.03,VWS V14.01,2013-04-30 10:38:00,
2013-04-30 06:43:00,43.8,40.2,30.25,SSE,156,3.0,5.0,87,0.00,,---,0.03,VWS V14.01,2013-04-30 10:43:00,
2013-04-30 06:48:00,44.0,40.4,30.26,SSE,153,2.0,4.0,87,0.00,,---,0.03,VWS V14.01,2013-04-30 10:48:00,
2013-04-30 06:53:00,44.1,40.5,30.26,South,177,4.0,6.0,87,0.00,,---,0.03,VWS V14.01,2013-04-30 10:53:00,
2013-04-30 06:58:00,44.2,40.6,30.26,SE,139,4.0,6.0,87,0.00,,---,0.03,VWS V14.01,2013-04-30 10:58:00,
2013-04-30 07:03:00,44.4,40.5,30.26,SSE,149,4.0,7.0,86,0.00,,---,0.03,VWS V14.01,2013-04-30 11:03:00,
2013-04-30 07:08:00,44.5,40.6,30.27,SE,144,4.0,6.0,86,0.00,,---,0.03,VWS V14.01,2013-04-30 11:08:00,
2013-04-30 07:13:00,44.6,40.7,30.27,SSE,153,3.0,6.0,86,0.00,,---,0.03,VWS V14.01,2013-04-30 11:13:00,
2013-04-30 07:18:00,44.8,40.9,30.27,SE,142,4.0,8.0,86,0.00,,---,0.03,VWS V14.01,2013-04-30 11:18:00,
2013-04-30 07:23:00,44.9,41.0,30.27,SSE,150,4.0,6.0,86,0.00,,---,0.03,VWS V14.01,2013-04-30 11:23:00,
2013-04-30 07:28:00,45.0,40.8,30.27,South,173,3.0,7.0,85,0.00,,---,0.03,VWS V14.01,2013-04-30 11:28:00,
2013-04-30 07:33:00,45.2,41.0,30.27,SE,145,3.0,6.0,85,0.00,,---,0.03,VWS V14.01,2013-04-30 11:33:00,
2013-04-30 07:38:00,45.4,41.2,30.27,SSE,162,4.0,6.0,85,0.00,,---,0.03,VWS V14.01,2013-04-30 11:38:00,
2013-04-30 07:43:00,45.6,41.4,30.27,SSE,153,6.0,6.0,85,0.00,,---,0.03,VWS V14.01,2013-04-30 11:43:00,
2013-04-30 07:48:00,45.8,41.5,30.28,SSE,157,5.0,8.0,85,0.00,,---,0.03,VWS V14.01,2013-04-30 11:48:00,
2013-04-30 07:53:00,46.0,41.8,30.28,SSE,163,6.0,7.0,85,0.00,,---,0.03,VWS V14.01,2013-04-30 11:53:00,
2013-04-30 07:58:00,46.2,41.6,30.28,SSE,159,5.0,8.0,84,0.00,,---,0.03,VWS V14.01,2013-04-30 11:58:00,
2013-04-30 08:03:00,46.5,41.9,30.28,SE,142,4.0,9.0,84,0.00,,---,0.03,VWS V14.01,2013-04-30 12:03:00,
2013-04-30 08:08:00,46.9,42.3,30.28,SE,132,4.0,7.0,84,0.00,,---,0.03,VWS V14.01,2013-04-30 12:08:00,
2013-04-30 08:13:00,47.4,42.8,30.28,SSE,153,4.0,9.0,84,0.00,,---,0.03,VWS V14.01,2013-04-30 12:13:00,
2013-04-30 08:18:00,47.6,42.7,30.28,SE,139,5.0,8.0,83,0.00,,---,0.03,VWS V14.01,2013-04-30 12:18:00,
2013-04-30 08:23:00,47.7,42.8,30.28,SE,146,7.0,7.0,83,0.00,,---,0.03,VWS V14.01,2013-04-30 12:23:00,
2013-04-30 08:28:00,47.9,43.3,30.28,SSE,162,6.0,10.0,84,0.00,,---,0.03,VWS V14.01,2013-04-30 12:28:00,
2013-04-30 08:33:00,48.1,42.9,30.28,SSE,155,5.0,11.0,82,0.00,,---,0.03,VWS V14.01,2013-04-30 12:33:00,
2013-04-30 08:38:00,48.3,43.1,30.28,SSE,160,4.0,7.0,82,0.00,,---,0.03,VWS V14.01,2013-04-30 12:38:00,
2013-04-30 08:43:00,48.3,43.1,30.28,SE,146,4.0,8.0,82,0.00,,---,0.03,VWS V14.01,2013-04-30 12:43:00,
2013-04-30 08:48:00,48.3,42.8,30.29,SSE,162,5.0,8.0,81,0.00,,---,0.03,VWS V14.01,2013-04-30 12:48:00,
2013-04-30 08:53:00,48.3,43.1,30.29,SE,146,7.0,7.0,82,0.00,,---,0.03,VWS V14.01,2013-04-30 12:53:00,
2013-04-30 08:58:00,48.5,43.3,30.29,SSE,158,4.0,8.0,82,0.00,,---,0.03,VWS V14.01,2013-04-30 12:58:00,
2013-04-30 09:03:00,48.8,43.6,30.29,SSE,149,7.0,7.0,82,0.00,,---,0.03,VWS V14.01,2013-04-30 13:03:00,
2013-04-30 09:08:00,48.9,43.3,30.29,SSE,148,6.0,8.0,81,0.00,,---,0.03,VWS V14.01,2013-04-30 13:08:00,
2013-04-30 09:13:00,49.4,43.5,30.29,SE,135,5.0,9.0,80,0.00,,---,0.03,VWS V14.01,2013-04-30 13:13:00,
2013-04-30 09:18:00,49.9,44.0,30.29,SSE,158,7.0,9.0,80,0.00,,---,0.03,VWS V14.01,2013-04-30 13:18:00,
2013-04-30 09:23:00,50.4,44.8,30.29,SSE,159,6.0,8.0,81,0.00,,---,0.03,VWS V14.01,2013-04-30 13:23:00,
2013-04-30 09:28:00,50.6,44.3,30.29,SSE,166,6.0,9.0,79,0.00,,---,0.03,VWS V14.01,2013-04-30 13:28:00,
2013-04-30 09:33:00,50.9,45.0,30.29,SSE,150,4.0,9.0,80,0.00,,---,0.03,VWS V14.01,2013-04-30 13:33:00,
2013-04-30 09:38:00,51.0,45.1,30.29,SSE,155,4.0,9.0,80,0.00,,---,0.03,VWS V14.01,2013-04-30 13:38:00,
2013-04-30 09:43:00,51.0,44.4,30.29,SE,132,5.0,9.0,78,0.00,,---,0.03,VWS V14.01,2013-04-30 13:43:00,
2013-04-30 09:48:00,51.1,44.5,30.29,ESE,113,5.0,8.0,78,0.00,,---,0.03,VWS V14.01,2013-04-30 13:48:00,
2013-04-30 09:53:00,51.4,44.4,30.29,SSE,152,12.0,12.0,77,0.00,,---,0.03,VWS V14.01,2013-04-30 13:53:00,
2013-04-30 09:58:00,51.4,43.4,30.29,SE,146,6.0,11.0,74,0.00,,---,0.03,VWS V14.01,2013-04-30 13:58:00,
2013-04-30 10:03:00,51.7,43.7,30.29,SSE,148,8.0,11.0,74,0.00,,---,0.03,VWS V14.01,2013-04-30 14:03:00,
2013-04-30 10:08:00,52.7,43.9,30.29,South,180,13.0,13.0,72,0.00,,---,0.03,VWS V14.01,2013-04-30 14:08:00,
2013-04-30 10:13:00,53.6,44.8,30.29,SSE,155,11.0,14.0,72,0.00,,---,0.03,VWS V14.01,2013-04-30 14:13:00,
2013-04-30 10:18:00,54.2,45.4,30.29,SE,133,5.0,13.0,72,0.00,,---,0.03,VWS V14.01,2013-04-30 14:18:00,
2013-04-30 10:23:00,54.3,44.7,30.29,SE,146,11.0,14.0,70,0.00,,---,0.03,VWS V14.01,2013-04-30 14:23:00,
2013-04-30 10:28:00,54.2,44.3,30.29,South,184,8.0,14.0,69,0.00,,---,0.03,VWS V14.01,2013-04-30 14:28:00,
2013-04-30 10:33:00,54.4,44.8,30.29,SE,129,7.0,13.0,70,0.00,,---,0.03,VWS V14.01,2013-04-30 14:33:00,
2013-04-30 10:38:00,54.8,44.5,30.29,SSW,208,6.0,12.0,68,0.00,,---,0.03,VWS V14.01,2013-04-30 14:38:00,
2013-04-30 10:43:00,55.5,44.3,30.28,SSE,150,11.0,13.0,66,0.00,,---,0.03,VWS V14.01,2013-04-30 14:43:00,
2013-04-30 10:48:00,55.7,44.1,30.28,South,184,10.0,13.0,65,0.00,,---,0.03,VWS V14.01,2013-04-30 14:48:00,
2013-04-30 10:53:00,56.0,44.4,30.28,SSE,155,8.0,11.0,65,0.00,,---,0.03,VWS V14.01,2013-04-30 14:53:00,
2013-04-30 10:58:00,56.5,43.2,30.28,SE,146,10.0,13.0,61,0.00,,---,0.03,VWS V14.01,2013-04-30 14:58:00,
2013-04-30 11:03:00,56.3,41.3,30.28,SSE,160,8.0,12.0,57,0.00,,---,0.03,VWS V14.01,2013-04-30 15:03:00,
2013-04-30 11:08:00,56.1,40.2,30.28,SE,128,6.0,14.0,55,0.00,,---,0.03,VWS V14.01,2013-04-30 15:08:00,
2013-04-30 11:13:00,56.4,39.0,30.28,South,172,10.0,14.0,52,0.00,,---,0.03,VWS V14.01,2013-04-30 15:13:00,
2013-04-30 11:18:00,56.8,38.4,30.28,SSE,152,11.0,14.0,50,0.00,,---,0.03,VWS V14.01,2013-04-30 15:18:00,
2013-04-30 11:23:00,57.2,38.2,30.28,SSE,155,5.0,16.0,49,0.00,,---,0.03,VWS V14.01,2013-04-30 15:23:00,
2013-04-30 11:28:00,57.4,35.7,30.28,SSE,167,6.0,15.0,44,0.00,,---,0.03,VWS V14.01,2013-04-30 15:28:00,
2013-04-30 11:33:00,57.8,36.6,30.28,SE,129,11.0,16.0,45,0.00,,---,0.03,VWS V14.01,2013-04-30 15:33:00,
2013-04-30 11:38:00,57.8,37.7,30.28,SE,125,10.0,15.0,47,0.00,,---,0.03,VWS V14.01,2013-04-30 15:38:00,
2013-04-30 11:43:00,57.8,36.6,30.28,SSE,163,10.0,14.0,45,0.00,,---,0.03,VWS V14.01,2013-04-30 15:43:00,
2013-04-30 11:48:00,58.6,38.5,30.28,South,188,10.0,13.0,47,0.00,,---,0.03,VWS V14.01,2013-04-30 15:48:00,
2013-04-30 11:53:00,58.6,39.5,30.28,South,176,9.0,17.0,49,0.00,,---,0.03,VWS V14.01,2013-04-30 15:53:00,
2013-04-30 11:58:00,59.0,40.9,30.28,SSE,158,10.0,15.0,51,0.00,,---,0.03,VWS V14.01,2013-04-30 15:58:00,
2013-04-30 12:03:00,58.7,42.1,30.28,SSE,150,12.0,16.0,54,0.00,,---,0.03,VWS V14.01,2013-04-30 16:03:00,
2013-04-30 12:08:00,58.5,41.9,30.28,SE,146,10.0,16.0,54,0.00,,---,0.03,VWS V14.01,2013-04-30 16:08:00,
2013-04-30 12:13:00,58.7,44.9,30.27,South,176,9.0,14.0,60,0.00,,---,0.03,VWS V14.01,2013-04-30 16:13:00,
2013-04-30 12:18:00,59.2,43.1,30.27,SW,224,10.0,12.0,55,0.00,,---,0.03,VWS V14.01,2013-04-30 16:18:00,
2013-04-30 12:23:00,59.7,43.0,30.27,SE,136,7.0,12.0,54,0.00,,---,0.03,VWS V14.01,2013-04-30 16:23:00,
2013-04-30 12:28:00,60.0,43.3,30.27,SSE,150,9.0,12.0,54,0.00,,---,0.03,VWS V14.01,2013-04-30 16:28:00,
2013-04-30 12:33:00,59.7,43.0,30.27,ESE,114,5.0,14.0,54,0.00,,---,0.03,VWS V14.01,2013-04-30 16:33:00,
2013-04-30 12:38:00,59.4,43.7,30.27,East,101,9.0,15.0,56,0.00,,---,0.03,VWS V14.01,2013-04-30 16:38:00,
2013-04-30 12:44:00,59.5,43.3,30.27,SE,146,9.0,14.0,55,0.00,,---,0.03,VWS V14.01,2013-04-30 16:44:00,
2013-04-30 12:49:00,59.8,44.1,30.27,SSE,155,8.0,14.0,56,0.00,,---,0.03,VWS V14.01,2013-04-30 16:49:00,
2013-04-30 12:54:00,59.9,43.7,30.27,SW,214,6.0,12.0,55,0.00,,---,0.03,VWS V14.01,2013-04-30 16:54:00,
2013-04-30 12:59:00,60.7,44.0,30.27,SW,225,8.0,14.0,54,0.00,,---,0.03,VWS V14.01,2013-04-30 16:59:00,
2013-04-30 13:04:00,61.1,44.3,30.27,SE,146,5.0,11.0,54,0.00,,---,0.03,VWS V14.01,2013-04-30 17:04:00,
2013-04-30 13:09:00,61.3,44.5,30.27,SSE,150,9.0,12.0,54,0.00,,---,0.03,VWS V14.01,2013-04-30 17:09:00,
2013-04-30 13:14:00,61.3,45.0,30.26,SSW,197,7.0,14.0,55,0.00,,---,0.03,VWS V14.01,2013-04-30 17:14:00,
2013-04-30 13:19:00,61.5,44.2,30.27,SSW,202,10.0,14.0,53,0.00,,---,0.03,VWS V14.01,2013-04-30 17:19:00,
2013-04-30 13:24:00,61.5,44.2,30.27,SSW,208,10.0,15.0,53,0.00,,---,0.03,VWS V14.01,2013-04-30 17:24:00,
2013-04-30 13:29:00,61.4,45.6,30.27,SE,146,8.0,14.0,56,0.00,,---,0.03,VWS V14.01,2013-04-30 17:29:00,
2013-04-30 13:34:00,61.4,44.1,30.27,SSE,156,11.0,14.0,53,0.00,,---,0.03,VWS V14.01,2013-04-30 17:34:00,
2013-04-30 13:39:00,61.3,45.0,30.27,SW,215,8.0,20.0,55,0.00,,---,0.03,VWS V14.01,2013-04-30 17:39:00,
2013-04-30 13:44:00,61.4,44.6,30.27,SSE,160,6.0,11.0,54,0.00,,---,0.03,VWS V14.01,2013-04-30 17:44:00,
2013-04-30 13:49:00,62.0,46.6,30.27,SW,235,6.0,15.0,57,0.00,,---,0.03,VWS V14.01,2013-04-30 17:49:00,
2013-04-30 13:54:00,62.3,45.5,30.26,SE,130,4.0,14.0,54,0.00,,---,0.03,VWS V14.01,2013-04-30 17:54:00,
2013-04-30 13:59:00,62.1,45.8,30.26,SSE,158,9.0,12.0,55,0.00,,---,0.03,VWS V14.01,2013-04-30 17:59:00,
2013-04-30 14:04:00,62.7,46.8,30.27,SE,126,12.0,14.0,56,0.00,,---,0.03,VWS V14.01,2013-04-30 18:04:00,
2013-04-30 14:09:00,62.4,45.5,30.26,SE,125,8.0,14.0,54,0.00,,---,0.03,VWS V14.01,2013-04-30 18:09:00,
2013-04-30 14:14:00,62.8,44.4,30.27,SSE,160,8.0,16.0,51,0.00,,---,0.03,VWS V14.01,2013-04-30 18:14:00,
2013-04-30 14:19:00,62.3,44.5,30.26,SE,132,4.0,11.0,52,0.00,,---,0.03,VWS V14.01,2013-04-30 18:19:00,
2013-04-30 14:24:00,62.8,44.9,30.26,SSE,162,5.0,13.0,52,0.00,,---,0.03,VWS V14.01,2013-04-30 18:24:00,
2013-04-30 14:29:00,63.2,44.3,30.26,ESE,105,7.0,11.0,50,0.00,,---,0.03,VWS V14.01,2013-04-30 18:29:00,
2013-04-30 14:35:00,63.6,44.1,30.26,SE,136,9.0,17.0,49,0.00,,---,0.03,VWS V14.01,2013-04-30 18:35:00,
2013-04-30 14:40:00,63.1,43.7,30.26,South,190,4.0,12.0,49,0.00,,---,0.03,VWS V14.01,2013-04-30 18:40:00,
2013-04-30 14:45:00,63.4,43.9,30.27,ESE,106,2.0,10.0,49,0.00,,---,0.03,VWS V14.01,2013-04-30 18:45:00,
2013-04-30 14:50:00,63.7,44.7,30.26,SSE,158,7.0,10.0,50,0.00,,---,0.03,VWS V14.01,2013-04-30 18:50:00,
2013-04-30 14:55:00,63.5,43.5,30.27,SSW,201,7.0,12.0,48,0.00,,---,0.03,VWS V14.01,2013-04-30 18:55:00,
2013-04-30 15:00:00,63.8,44.3,30.27,West,266,2.0,13.0,49,0.00,,---,0.03,VWS V14.01,2013-04-30 19:00:00,
2013-04-30 15:06:00,64.5,44.4,30.26,SSW,202,6.0,12.0,48,0.00,,---,0.03,VWS V14.01,2013-04-30 19:06:00,
2013-04-30 15:11:00,64.7,44.6,30.26,SSE,153,10.0,12.0,48,0.00,,---,0.03,VWS V14.01,2013-04-30 19:11:00,
2013-04-30 15:16:00,64.0,43.9,30.26,SE,133,3.0,13.0,48,0.00,,---,0.03,VWS V14.01,2013-04-30 19:16:00,
2013-04-30 15:21:00,63.9,43.3,30.26,ESE,105,4.0,13.0,47,0.00,,---,0.03,VWS V14.01,2013-04-30 19:21:00,
2013-04-30 15:26:00,64.3,44.2,30.26,SE,131,7.0,10.0,48,0.00,,---,0.03,VWS V14.01,2013-04-30 19:26:00,
2013-04-30 15:31:00,64.0,43.9,30.26,East,81,5.0,8.0,48,0.00,,---,0.03,VWS V14.01,2013-04-30 19:31:00,
2013-04-30 15:36:00,64.6,43.4,30.26,SE,131,4.0,12.0,46,0.00,,---,0.03,VWS V14.01,2013-04-30 19:36:00,
2013-04-30 15:41:00,64.4,43.8,30.26,East,85,3.0,11.0,47,0.00,,---,0.03,VWS V14.01,2013-04-30 19:41:00,
2013-04-30 15:46:00,64.3,43.1,30.26,SE,129,2.0,10.0,46,0.00,,---,0.03,VWS V14.01,2013-04-30 19:46:00,
2013-04-30 15:51:00,64.5,43.3,30.26,SSW,198,3.0,8.0,46,0.00,,---,0.03,VWS V14.01,2013-04-30 19:51:00,
2013-04-30 15:56:00,65.4,43.5,30.26,SSW,201,8.0,10.0,45,0.00,,---,0.03,VWS V14.01,2013-04-30 19:56:00,
2013-04-30 16:01:00,65.4,43.5,30.26,SW,219,7.0,9.0,45,0.00,,---,0.03,VWS V14.01,2013-04-30 20:01:00,
2013-04-30 16:06:00,65.5,44.8,30.26,SSW,212,8.0,11.0,47,0.00,,---,0.03,VWS V14.01,2013-04-30 20:06:00,
2013-04-30 16:11:00,65.2,42.2,30.26,South,172,7.0,11.0,43,0.00,,---,0.03,VWS V14.01,2013-04-30 20:11:00,
2013-04-30 16:16:00,65.0,42.6,30.26,South,172,4.0,10.0,44,0.00,,---,0.03,VWS V14.01,2013-04-30 20:16:00,
2013-04-30 16:21:00,65.0,43.7,30.26,SE,143,6.0,10.0,46,0.00,,---,0.03,VWS V14.01,2013-04-30 20:21:00,
2013-04-30 16:26:00,65.0,43.2,30.26,SE,134,6.0,10.0,45,0.00,,---,0.03,VWS V14.01,2013-04-30 20:26:00,
2013-04-30 16:31:00,64.8,42.4,30.26,SE,142,4.0,11.0,44,0.00,,---,0.03,VWS V14.01,2013-04-30 20:31:00,
2013-04-30 16:36:00,65.2,42.8,30.26,SE,131,5.0,14.0,44,0.00,,---,0.03,VWS V14.01,2013-04-30 20:36:00,
2013-04-30 16:41:00,65.0,42.0,30.26,ESE,120,5.0,7.0,43,0.00,,---,0.03,VWS V14.01,2013-04-30 20:41:00,
2013-04-30 16:46:00,64.9,42.5,30.26,South,170,8.0,10.0,44,0.00,,---,0.03,VWS V14.01,2013-04-30 20:46:00,
2013-04-30 16:51:00,65.0,42.0,30.26,SSE,164,2.0,9.0,43,0.00,,---,0.03,VWS V14.01,2013-04-30 20:51:00,
2013-04-30 16:56:00,65.3,42.8,30.26,SSE,153,8.0,11.0,44,0.00,,---,0.03,VWS V14.01,2013-04-30 20:56:00,
2013-04-30 17:01:00,65.3,41.6,30.26,SSE,158,4.0,11.0,42,0.00,,---,0.03,VWS V14.01,2013-04-30 21:01:00,
2013-04-30 17:06:00,65.6,41.9,30.26,East,88,3.0,7.0,42,0.00,,---,0.03,VWS V14.01,2013-04-30 21:06:00,
2013-04-30 17:11:00,65.6,42.5,30.26,SE,146,3.0,11.0,43,0.00,,---,0.03,VWS V14.01,2013-04-30 21:11:00,
2013-04-30 17:16:00,65.8,42.7,30.26,SE,146,6.0,8.0,43,0.00,,---,0.03,VWS V14.01,2013-04-30 21:16:00,
2013-04-30 17:21:00,65.6,41.9,30.26,SSE,152,9.0,10.0,42,0.00,,---,0.03,VWS V14.01,2013-04-30 21:21:00,
2013-04-30 17:26:00,65.6,41.9,30.26,East,89,5.0,10.0,42,0.00,,---,0.03,VWS V14.01,2013-04-30 21:26:00,
2013-04-30 17:32:00,65.8,42.1,30.26,South,187,6.0,11.0,42,0.00,,---,0.03,VWS V14.01,2013-04-30 21:32:00,
2013-04-30 17:37:00,65.6,41.9,30.26,ESE,111,5.0,9.0,42,0.00,,---,0.03,VWS V14.01,2013-04-30 21:37:00,
2013-04-30 17:42:00,65.3,41.6,30.26,ESE,115,5.0,8.0,42,0.00,,---,0.03,VWS V14.01,2013-04-30 21:42:00,
2013-04-30 17:47:00,65.3,41.6,30.26,SSW,193,6.0,6.0,42,0.00,,---,0.03,VWS V14.01,2013-04-30 21:47:00,
2013-04-30 17:52:00,65.6,41.3,30.26,SSE,164,5.0,9.0,41,0.00,,---,0.03,VWS V14.01,2013-04-30 21:52:00,
2013-04-30 17:57:00,65.8,42.7,30.26,SSW,208,4.0,7.0,43,0.00,,---,0.03,VWS V14.01,2013-04-30 21:57:00,
2013-04-30 18:02:00,65.8,41.5,30.26,South,170,3.0,8.0,41,0.00,,---,0.03,VWS V14.01,2013-04-30 22:02:00,
2013-04-30 18:07:00,65.6,41.3,30.26,ESE,103,12.0,12.0,41,0.00,,---,0.03,VWS V14.01,2013-04-30 22:07:00,
2013-04-30 18:12:00,65.3,41.0,30.26,ESE,111,2.0,12.0,41,0.00,,---,0.03,VWS V14.01,2013-04-30 22:12:00,
2013-04-30 18:17:00,65.2,40.9,30.26,SSW,212,3.0,6.0,41,0.00,,---,0.03,VWS V14.01,2013-04-30 22:17:00,
2013-04-30 18:22:00,65.0,40.8,30.26,SSE,149,4.0,9.0,41,0.00,,---,0.03,VWS V14.01,2013-04-30 22:22:00,
2013-04-30 18:27:00,64.9,40.7,30.25,South,170,4.0,7.0,41,0.00,,---,0.03,VWS V14.01,2013-04-30 22:27:00,
2013-04-30 18:32:00,64.9,40.7,30.26,SSE,149,3.0,8.0,41,0.00,,---,0.03,VWS V14.01,2013-04-30 22:32:00,
2013-04-30 18:37:00,64.8,39.9,30.26,SSE,165,4.0,6.0,40,0.00,,---,0.03,VWS V14.01,2013-04-30 22:37:00,
2013-04-30 18:42:00,64.5,40.3,30.26,SE,146,5.0,6.0,41,0.00,,---,0.03,VWS V14.01,2013-04-30 22:42:00,
2013-04-30 18:47:00,64.2,40.0,30.26,ESE,112,4.0,7.0,41,0.00,,---,0.03,VWS V14.01,2013-04-30 22:47:00,
2013-04-30 18:52:00,64.2,40.0,30.26,South,184,5.0,7.0,41,0.00,,---,0.03,VWS V14.01,2013-04-30 22:52:00,
2013-04-30 18:57:00,64.3,39.5,30.26,SSE,166,3.0,7.0,40,0.00,,---,0.03,VWS V14.01,2013-04-30 22:57:00,
2013-04-30 19:02:00,64.0,39.2,30.26,SSE,156,5.0,6.0,40,0.00,,---,0.03,VWS V14.01,2013-04-30 23:02:00,
2013-04-30 19:07:00,63.9,39.8,30.26,South,169,3.0,5.0,41,0.00,,---,0.03,VWS V14.01,2013-04-30 23:07:00,
2013-04-30 19:12:00,63.8,39.7,30.25,SSE,162,6.0,7.0,41,0.00,,---,0.03,VWS V14.01,2013-04-30 23:12:00,
2013-04-30 19:17:00,63.4,39.3,30.26,SSE,159,3.0,6.0,41,0.00,,---,0.03,VWS V14.01,2013-04-30 23:17:00,
2013-04-30 19:22:00,63.0,39.0,30.26,SSE,162,2.0,4.0,41,0.00,,---,0.03,VWS V14.01,2013-04-30 23:22:00,
2013-04-30 19:27:00,62.2,38.8,30.26,SE,138,1.0,3.0,42,0.00,,---,0.03,VWS V14.01,2013-04-30 23:27:00,
2013-04-30 19:32:00,61.4,38.7,30.26,SE,132,1.0,4.0,43,0.00,,---,0.03,VWS V14.01,2013-04-30 23:32:00,
2013-04-30 19:37:00,60.7,38.7,30.26,SE,132,2.0,3.0,44,0.00,,---,0.03,VWS V14.01,2013-04-30 23:37:00,
2013-04-30 19:43:00,59.8,38.4,30.26,SE,136,1.0,2.0,45,0.00,,---,0.03,VWS V14.01,2013-04-30 23:43:00,
2013-04-30 19:48:00,59.3,38.5,30.26,SE,135,1.0,2.0,46,0.00,,---,0.03,VWS V14.01,2013-04-30 23:48:00,
2013-04-30 19:53:00,58.8,38.6,30.26,SSE,148,2.0,2.0,47,0.00,,---,0.03,VWS V14.01,2013-04-30 23:53:00,
2013-04-30 19:58:00,58.4,38.8,30.26,SE,139,1.0,3.0,48,0.00,,---,0.03,VWS V14.01,2013-04-30 23:58:00,
2013-04-30 20:03:00,57.9,38.3,30.26,ESE,115,1.0,2.0,48,0.00,,---,0.03,VWS V14.01,2013-05-01 00:03:00,
2013-04-30 20:08:00,57.6,38.6,30.26,ESE,121,1.0,2.0,49,0.00,,---,0.03,VWS V14.01,2013-05-01 00:08:00,
2013-04-30 20:13:00,57.2,38.2,30.26,SE,125,1.0,2.0,49,0.00,,---,0.03,VWS V14.01,2013-05-01 00:13:00,
2013-04-30 20:18:00,56.8,38.4,30.26,SSE,152,2.0,3.0,50,0.00,,---,0.03,VWS V14.01,2013-05-01 00:18:00,
2013-04-30 20:23:00,56.8,38.4,30.26,ESE,115,1.0,2.0,50,0.00,,---,0.03,VWS V14.01,2013-05-01 00:23:00,
2013-04-30 20:28:00,56.6,38.2,30.26,East,96,1.0,2.0,50,0.00,,---,0.03,VWS V14.01,2013-05-01 00:28:00,
2013-04-30 20:33:00,56.5,38.1,30.26,ESE,110,2.0,3.0,50,0.00,,---,0.03,VWS V14.01,2013-05-01 00:33:00,
2013-04-30 20:38:00,56.4,37.5,30.26,SE,128,1.0,2.0,49,0.00,,---,0.03,VWS V14.01,2013-05-01 00:38:00,
2013-04-30 20:43:00,56.3,37.4,30.26,ESE,117,1.0,3.0,49,0.00,,---,0.03,VWS V14.01,2013-05-01 00:43:00,
2013-04-30 20:48:00,56.2,37.3,30.26,SE,135,1.0,2.0,49,0.00,,---,0.03,VWS V14.01,2013-05-01 00:48:00,
2013-04-30 20:53:00,56.1,36.7,30.27,SE,129,2.0,3.0,48,0.00,,---,0.03,VWS V14.01,2013-05-01 00:53:00,
2013-04-30 20:58:00,56.0,37.1,30.27,SE,124,2.0,4.0,49,0.00,,---,0.03,VWS V14.01,2013-05-01 00:58:00,
2013-04-30 21:03:00,55.9,37.0,30.27,East,98,3.0,5.0,49,0.00,,---,0.03,VWS V14.01,2013-05-01 01:03:00,
2013-04-30 21:08:00,55.9,37.0,30.27,SE,125,1.0,5.0,49,0.00,,---,0.03,VWS V14.01,2013-05-01 01:08:00,
2013-04-30 21:13:00,55.7,36.8,30.27,ESE,117,2.0,3.0,49,0.00,,---,0.03,VWS V14.01,2013-05-01 01:13:00,
2013-04-30 21:18:00,55.5,36.7,30.27,ESE,112,2.0,4.0,49,0.00,,---,0.03,VWS V14.01,2013-05-01 01:18:00,
2013-04-30 21:23:00,55.3,36.5,30.27,ESE,103,2.0,3.0,49,0.00,,---,0.03,VWS V14.01,2013-05-01 01:23:00,
2013-04-30 21:28:00,55.2,36.4,30.27,ESE,102,2.0,4.0,49,0.00,,---,0.03,VWS V14.01,2013-05-01 01:28:00,
2013-04-30 21:33:00,55.0,36.2,30.27,East,100,2.0,5.0,49,0.00,,---,0.03,VWS V14.01,2013-05-01 01:33:00,
2013-04-30 21:38:00,54.9,36.1,30.27,SE,128,3.0,5.0,49,0.00,,---,0.03,VWS V14.01,2013-05-01 01:38:00,
2013-04-30 21:43:00,54.7,36.4,30.28,ESE,111,3.0,4.0,50,0.00,,---,0.03,VWS V14.01,2013-05-01 01:43:00,
2013-04-30 21:48:00,54.5,36.3,30.28,SE,131,3.0,4.0,50,0.00,,---,0.03,VWS V14.01,2013-05-01 01:48:00,
2013-04-30 21:53:00,54.4,36.2,30.28,SSE,148,3.0,6.0,50,0.00,,---,0.03,VWS V14.01,2013-05-01 01:53:00,
2013-04-30 21:58:00,54.3,36.1,30.28,SE,139,4.0,7.0,50,0.00,,---,0.03,VWS V14.01,2013-05-01 01:58:00,
2013-04-30 22:03:00,54.0,36.3,30.28,ESE,114,4.0,4.0,51,0.00,,---,0.03,VWS V14.01,2013-05-01 02:03:00,
2013-04-30 22:08:00,53.7,36.0,30.28,SE,128,4.0,5.0,51,0.00,,---,0.03,VWS V14.01,2013-05-01 02:08:00,
2013-04-30 22:13:00,53.4,36.2,30.28,ESE,115,3.0,7.0,52,0.00,,---,0.03,VWS V14.01,2013-05-01 02:13:00,
2013-04-30 22:18:00,53.1,36.0,30.28,ESE,122,5.0,7.0,52,0.00,,---,0.03,VWS V14.01,2013-05-01 02:18:00,
2013-04-30 22:23:00,53.0,35.9,30.28,SE,129,7.0,7.0,52,0.00,,---,0.03,VWS V14.01,2013-05-01 02:23:00,
2013-04-30 22:28:00,52.8,35.7,30.28,SSE,167,4.0,7.0,52,0.00,,---,0.03,VWS V14.01,2013-05-01 02:28:00,
2013-04-30 22:33:00,52.6,35.0,30.27,ESE,122,5.0,9.0,51,0.00,,---,0.03,VWS V14.01,2013-05-01 02:33:00,
2013-04-30 22:38:00,52.4,35.3,30.28,SE,140,3.0,9.0,52,0.00,,---,0.03,VWS V14.01,2013-05-01 02:38:00,
2013-04-30 22:43:00,52.3,34.7,30.28,SE,135,6.0,8.0,51,0.00,,---,0.03,VWS V14.01,2013-05-01 02:43:00,
2013-04-30 22:48:00,52.1,34.5,30.28,SSE,158,4.0,7.0,51,0.00,,---,0.03,VWS V14.01,2013-05-01 02:48:00,
2013-04-30 22:53:00,51.9,33.9,30.28,SE,134,6.0,7.0,50,0.00,,---,0.03,VWS V14.01,2013-05-01 02:53:00,
2013-04-30 22:58:00,51.8,33.8,30.28,ESE,118,4.0,7.0,50,0.00,,---,0.03,VWS V14.01,2013-05-01 02:58:00,
2013-04-30 23:03:00,51.6,33.1,30.28,SE,128,5.0,8.0,49,0.00,,---,0.03,VWS V14.01,2013-05-01 03:03:00,
2013-04-30 23:08:00,51.4,32.9,30.28,SSE,150,4.0,9.0,49,0.00,,---,0.03,VWS V14.01,2013-05-01 03:08:00,
2013-04-30 23:13:00,51.3,32.8,30.28,SE,136,5.0,7.0,49,0.00,,---,0.03,VWS V14.01,2013-05-01 03:13:00,
2013-04-30 23:18:00,51.1,32.6,30.28,ESE,118,4.0,8.0,49,0.00,,---,0.03,VWS V14.01,2013-05-01 03:18:00,
2013-04-30 23:23:00,50.8,31.8,30.28,ESE,121,3.0,7.0,48,0.00,,---,0.03,VWS V14.01,2013-05-01 03:23:00,
2013-04-30 23:28:00,50.7,31.7,30.28,SE,139,3.0,7.0,48,0.00,,---,0.03,VWS V14.01,2013-05-01 03:28:00,
2013-04-30 23:33:00,50.5,31.6,30.28,East,94,2.0,6.0,48,0.00,,---,0.03,VWS V14.01,2013-05-01 03:33:00,
2013-04-30 23:38:00,50.3,31.4,30.28,ESE,108,2.0,7.0,48,0.00,,---,0.03,VWS V14.01,2013-05-01 03:38:00,
2013-04-30 23:43:00,50.2,31.3,30.29,SE,134,4.0,6.0,48,0.00,,---,0.03,VWS V14.01,2013-05-01 03:43:00,
2013-04-30 23:48:00,50.0,31.1,30.29,SE,143,4.0,6.0,48,0.00,,---,0.03,VWS V14.01,2013-05-01 03:48:00,
2013-04-30 23:53:00,49.9,31.0,30.29,SE,136,3.0,6.0,48,0.00,,---,0.03,VWS V14.01,2013-05-01 03:53:00,
2013-04-30 23:58:00,49.8,30.9,30.29,SE,142,3.0,6.0,48,0.00,,---,0.03,VWS V14.01,2013-05-01 03:58:00,